Weather History for KHYS - March, 2014

Change the Weather History Date:

Wednesday, March 19, 2014

  Actual Average (WUND) Record (WUND)
Temperature  
Mean Temperature 42 °F -  
Max Temperature 57 °F - - (-1)
Min Temperature 26 °F - - (-1)
Degree Days  
Heating Degree Days 24    
Moisture  
Dew Point 25 °F    
Average Humidity 56    
Maximum Humidity 86    
Minimum Humidity 25    
Precipitation  
Precipitation 0.00 in - - ()
Sea Level Pressure  
Sea Level Pressure 30.11 in    
Wind  
Wind Speed 13 mph (WNW)    
Max Wind Speed 22 mph    
Max Gust Speed 29 mph    
Visibility 10 miles    
Events      
Averages and records for this station are not official NWS values.
T = Trace of Precipitation, MM = Missing Value Source: NWS Daily Summary

Daily Weather History Graph

Daily Weather History Graph

Search for Another Location

Airport or City:

Trip Planner

Search our weather history database for the weather conditions in past years. The results will help you decide how hot, cold, wet, or windy it might be!

Date:

Astronomy

Mar. 19, 2014 Rise Set
Actual Time 7:42 AM CDT 7:48 PM CDT
Civil Twilight 7:15 AM CDT 8:14 PM CDT
Nautical Twilight 6:44 AM CDT 8:45 PM CDT
Astronomical Twilight 6:13 AM CDT 9:17 PM CDT
Moon 11:06 PM CDT (3/19) 9:10 AM CDT (3/19)
Length of Visible Light 12h 59m
Length of Day
12h 06m
Waning Gibbous, 91% of the Moon is Illuminated
Mar 19
Waning Gibbous
Mar 23
Last Quarter
Mar 30
New
Apr 7
First Quarter
Apr 15
Full

Hourly Weather History & Observations

Time (CDT) Temp. Windchill Dew Point Humidity Pressure Visibility Wind Dir Wind Speed Gust Speed Precip Events Conditions
12:15 AM 35.6 °F 25.5 °F 28.4 °F 75% 29.97 in 10.0 mi NNW 17.3 mph 25.3 mph N/A   Clear
12:35 AM 35.6 °F 25.5 °F 28.4 °F 75% 29.98 in 10.0 mi NW 17.3 mph - N/A   Clear
12:55 AM 35.6 °F 25.5 °F 26.6 °F 70% 29.99 in 10.0 mi NW 17.3 mph 23.0 mph N/A   Clear
1:15 AM 33.8 °F 22.8 °F 26.6 °F 75% 30.00 in 10.0 mi NNW 18.4 mph - N/A   Clear
1:35 AM 33.8 °F 23.9 °F 26.6 °F 75% 30.01 in 10.0 mi NNW 15.0 mph 19.6 mph N/A   Clear
1:55 AM 33.8 °F 23.9 °F 26.6 °F 75% 30.01 in 10.0 mi NNW 15.0 mph - N/A   Clear
2:15 AM 33.8 °F 24.3 °F 26.6 °F 75% 30.03 in 10.0 mi NNW 13.8 mph - N/A   Clear
2:35 AM 33.8 °F 23.9 °F 26.6 °F 75% 30.04 in 10.0 mi NNW 15.0 mph - N/A   Clear
2:55 AM 33.8 °F 23.2 °F 26.6 °F 75% 30.05 in 10.0 mi NNW 17.3 mph - N/A   Scattered Clouds
3:15 AM 33.8 °F 21.9 °F 26.6 °F 75% 30.06 in 10.0 mi NNW 21.9 mph 28.8 mph N/A   Mostly Cloudy
3:35 AM 33.8 °F 23.2 °F 26.6 °F 75% 30.05 in 10.0 mi NNW 17.3 mph - N/A   Partly Cloudy
3:55 AM 33.8 °F 24.8 °F 26.6 °F 75% 30.05 in 10.0 mi NNW 12.7 mph - N/A   Clear
4:15 AM 33.8 °F 23.5 °F 26.6 °F 75% 30.03 in 10.0 mi NNW 16.1 mph - N/A   Clear
4:35 AM 33.8 °F 23.5 °F 26.6 °F 75% 30.04 in 10.0 mi NNW 16.1 mph - N/A   Clear
4:55 AM 33.8 °F 23.9 °F 26.6 °F 75% 30.03 in 10.0 mi North 15.0 mph - N/A   Clear
5:15 AM 32.0 °F 21.6 °F 26.6 °F 80% 30.06 in 10.0 mi NNW 15.0 mph - N/A   Clear
5:35 AM 32.0 °F 23.6 °F 26.6 °F 80% 30.07 in 10.0 mi NW 10.4 mph - N/A   Clear
5:55 AM 30.2 °F 21.9 °F 24.8 °F 80% 30.08 in 10.0 mi NW 9.2 mph - N/A   Clear
6:15 AM 28.4 °F 19.7 °F 24.8 °F 86% 30.09 in 10.0 mi WNW 9.2 mph - N/A   Clear
6:35 AM 28.4 °F 21.2 °F 24.8 °F 86% 30.09 in 10.0 mi NW 6.9 mph - N/A   Clear
6:55 AM 28.4 °F 19.7 °F 24.8 °F 86% 30.10 in 10.0 mi WNW 9.2 mph - N/A   Clear
7:15 AM 26.6 °F 17.5 °F 21.2 °F 80% 30.12 in 10.0 mi West 9.2 mph - N/A   Clear
7:35 AM 26.6 °F 18.2 °F 21.2 °F 80% 30.13 in 9.0 mi WNW 8.1 mph - N/A   Clear
7:55 AM 26.6 °F 19.1 °F 23.0 °F 86% 30.14 in 9.0 mi West 6.9 mph - N/A   Clear
8:15 AM 26.6 °F 20.0 °F 23.0 °F 86% 30.14 in 10.0 mi WNW 5.8 mph - N/A   Clear
8:35 AM 30.2 °F 22.6 °F 26.6 °F 86% 30.15 in 10.0 mi NW 8.1 mph - N/A   Clear
8:55 AM 32.0 °F 24.2 °F 26.6 °F 80% 30.16 in 10.0 mi WNW 9.2 mph - N/A   Clear
9:15 AM 33.8 °F 25.3 °F 26.6 °F 75% 30.17 in 10.0 mi WNW 11.5 mph - N/A   Clear
9:35 AM 35.6 °F 27.5 °F 28.4 °F 75% 30.19 in 10.0 mi West 11.5 mph - N/A   Clear
9:55 AM 37.4 °F 29.3 °F 30.2 °F 75% 30.19 in 10.0 mi WNW 12.7 mph - N/A   Clear
10:15 AM 37.4 °F 28.5 °F 30.2 °F 75% 30.20 in 10.0 mi West 15.0 mph - N/A   Clear
10:35 AM 39.2 °F 32.0 °F 30.2 °F 70% 30.21 in 10.0 mi WNW 11.5 mph - N/A   Clear
10:55 AM 41.0 °F 34.3 °F 32.0 °F 70% 30.21 in 10.0 mi WNW 11.5 mph - N/A   Clear
11:15 AM 42.8 °F 37.0 °F 32.0 °F 66% 30.22 in 10.0 mi WNW 10.4 mph - N/A   Clear
11:35 AM 44.6 °F 38.4 °F 32.0 °F 61% 30.21 in 10.0 mi NW 12.7 mph 18.4 mph N/A   Clear
11:55 AM 46.4 °F 40.7 °F 30.2 °F 53% 30.20 in 10.0 mi WNW 12.7 mph - N/A   Clear
12:15 PM 46.4 °F 41.1 °F 30.2 °F 53% 30.20 in 10.0 mi WNW 11.5 mph 18.4 mph N/A   Clear
12:35 PM 48.2 °F - 28.4 °F 46% 30.20 in 10.0 mi WNW 9.2 mph - N/A   Clear
12:55 PM 48.2 °F - 28.4 °F 46% 30.19 in 10.0 mi WNW 13.8 mph 18.4 mph N/A   Clear
1:15 PM 50.0 °F - 28.4 °F 43% 30.19 in 10.0 mi West 13.8 mph 19.6 mph N/A   Clear
1:35 PM 51.8 °F - 26.6 °F 38% 30.18 in 10.0 mi WNW 13.8 mph 20.7 mph N/A   Clear
1:55 PM 51.8 °F - 26.6 °F 38% 30.17 in 10.0 mi WNW 13.8 mph 18.4 mph N/A   Clear
2:15 PM 51.8 °F - 26.6 °F 38% 30.16 in 10.0 mi WNW 6.9 mph 16.1 mph N/A   Clear
2:35 PM 53.6 °F - 26.6 °F 35% 30.15 in 10.0 mi WNW 13.8 mph 20.7 mph N/A   Clear
2:55 PM 53.6 °F - 26.6 °F 35% 30.14 in 10.0 mi West 6.9 mph 17.3 mph N/A   Clear
3:15 PM 55.4 °F - 26.6 °F 33% 30.13 in 10.0 mi WNW 15.0 mph 23.0 mph N/A   Clear
3:35 PM 55.4 °F - 28.4 °F 36% 30.13 in 10.0 mi West 13.8 mph 20.7 mph N/A   Clear
3:55 PM 55.4 °F - 24.8 °F 31% 30.11 in 10.0 mi West 15.0 mph 21.9 mph N/A   Partly Cloudy
4:15 PM 55.4 °F - 24.8 °F 31% 30.11 in 10.0 mi WNW 15.0 mph 23.0 mph N/A   Partly Cloudy
4:35 PM 57.2 °F - 24.8 °F 29% 30.10 in 10.0 mi West 11.5 mph 20.7 mph N/A   Clear
4:55 PM 57.2 °F - 24.8 °F 29% 30.10 in 10.0 mi WNW 15.0 mph 20.7 mph N/A   Clear
5:15 PM 57.2 °F - 24.8 °F 29% 30.10 in 10.0 mi West 9.2 mph 18.4 mph N/A   Partly Cloudy
5:35 PM 57.2 °F - 24.8 °F 29% 30.09 in 10.0 mi West 13.8 mph 18.4 mph N/A   Partly Cloudy
5:55 PM 57.2 °F - 21.2 °F 25% 30.09 in 10.0 mi WNW 16.1 mph 23.0 mph N/A   Partly Cloudy
6:15 PM 57.2 °F - 21.2 °F 25% 30.09 in 10.0 mi West 12.7 mph - N/A   Clear
6:35 PM 57.2 °F - 21.2 °F 25% 30.09 in 10.0 mi West 10.4 mph - N/A   Clear
6:55 PM 57.2 °F - 21.2 °F 25% 30.09 in 10.0 mi WSW 11.5 mph - N/A   Clear
7:15 PM 55.4 °F - 21.2 °F 26% 30.08 in 10.0 mi WSW 8.1 mph - N/A   Clear
7:35 PM 53.6 °F - 19.4 °F 26% 30.08 in 10.0 mi WSW 6.9 mph - N/A   Clear
7:55 PM 51.8 °F - 19.4 °F 28% 30.08 in 10.0 mi SW 8.1 mph - N/A   Clear
8:15 PM 46.4 °F 42.4 °F 19.4 °F 34% 30.08 in 10.0 mi SW 8.1 mph - N/A   Clear
8:35 PM 44.6 °F 40.7 °F 19.4 °F 37% 30.09 in 10.0 mi SSW 6.9 mph - N/A   Clear
8:55 PM 42.8 °F 39.3 °F 19.4 °F 39% 30.09 in 10.0 mi SSW 5.8 mph - N/A   Clear
9:15 PM 44.6 °F 41.4 °F 19.4 °F 37% 30.09 in 10.0 mi SSW 5.8 mph - N/A   Clear
9:35 PM 42.8 °F - 19.4 °F 39% 30.09 in 10.0 mi Calm Calm - N/A   Clear
9:55 PM 39.2 °F 37.0 °F 17.6 °F 42% 30.11 in 10.0 mi NW 3.5 mph - N/A   Clear
10:15 PM 39.2 °F 34.2 °F 19.4 °F 45% 30.11 in 10.0 mi WSW 6.9 mph - N/A   Clear
10:35 PM 42.8 °F 39.3 °F 19.4 °F 39% 30.10 in 10.0 mi West 5.8 mph - N/A   Clear
10:55 PM 42.8 °F 40.1 °F 19.4 °F 39% 30.10 in 10.0 mi NW 4.6 mph - N/A   Clear
11:15 PM 35.6 °F 31.7 °F 17.6 °F 48% 30.10 in 10.0 mi SSW 4.6 mph - N/A   Clear
11:35 PM 37.4 °F - 19.4 °F 48% 30.09 in 10.0 mi Calm Calm - N/A   Clear
11:55 PM 33.8 °F 30.8 °F 19.4 °F 56% 30.10 in 10.0 mi WSW 3.5 mph - N/A   Clear